FW3304 Weather Reports


Display with metric or nautical units.
time (UTC)temp
F
wind
direction
speed
MPH
gust
MPH
rain 1hr
in
rain 24hr
in
rain mn
in
humidity
%
barometer
mb
20260505083057 64 184 0.0 4.0 0.00 0.00 0.00 68 1008.0
20260505083016 64 208 2.0 14.0 0.00 0.00 0.00 68 1010.3
20260505081553 64 200 3.0 8.0 0.00 0.00 0.00 67 1007.9
20260505080054 65 217 3.0 10.0 0.00 0.00 0.00 67 1007.7
20260505080016 65 208 5.0 17.0 0.00 0.00 0.00 67 1010.0
20260505074548 65 229 5.0 14.0 0.00 0.00 0.00 66 1007.5
20260505073047 65 214 6.0 13.0 0.00 0.00 0.00 65 1007.5
20260505073016 65 204 5.0 17.0 0.00 0.00 0.00 65 1009.9
20260505071544 66 207 5.0 17.0 0.00 0.00 0.00 65 1007.7
20260505070045 66 178 5.0 13.0 0.00 0.00 0.00 64 1007.9
20260505070016 66 208 6.0 14.0 0.00 0.00 0.00 64 1010.1
20260505064539 66 211 6.0 12.0 0.00 0.00 0.00 64 1007.9
20260505063038 66 165 6.0 12.0 0.00 0.00 0.00 64 1008.0
20260505063021 66 210 6.0 13.0 0.00 0.00 0.00 64 1010.2
20260505061534 66 231 7.0 12.0 0.00 0.00 0.00 64 1008.4
20260505060036 66 219 4.0 12.0 0.00 0.00 0.00 63 1008.6
20260505060016 66 212 5.0 13.0 0.00 0.00 0.00 63 1010.9
20260505054528 66 217 5.0 11.0 0.00 0.00 0.00 63 1008.7
20260505053036 66 206 4.0 14.0 0.00 0.00 0.00 63 1011.1
20260505053032 66 205 4.0 10.0 0.00 0.00 0.00 63 1008.7
20260505051524 67 207 3.0 12.0 0.00 0.00 0.00 62 1008.9
20260505041520 69 238 5.0 11.0 0.00 0.00 0.00 59 1009.0
20260505040020 69 205 4.0 11.0 0.00 0.00 0.00 59 1008.8
20260505040016 69 205 5.0 13.0 0.00 0.00 0.00 58 1011.1
20260505034524 69 212 5.0 12.0 0.00 0.00 0.00 58 1008.9
20260505033018 69 254 6.0 13.0 0.00 0.00 0.00 58 1008.8
20260505033016 70 202 5.0 13.0 0.00 0.00 0.00 57 1010.9
20260505031518 70 205 6.0 11.0 0.00 0.00 0.00 57 1008.5
20260505030021 70 203 5.0 13.0 0.00 0.00 0.00 57 1010.5
20260505030018 70 233 6.0 12.0 0.00 0.00 0.00 57 1008.4
20260505024517 70 202 5.0 10.0 0.00 0.00 0.00 57 1008.3
20260505023016 70 198 5.0 13.0 0.00 0.00 0.00 56 1010.4
20260505021516 70 195 3.0 13.0 0.00 0.00 0.00 57 1008.1
20260505020016 71 196 4.0 12.0 0.00 0.00 0.00 56 1009.8
20260505014513 71 184 4.0 11.0 0.00 0.00 0.00 55 1007.5
20260505013016 72 197 4.0 12.0 0.00 0.00 0.00 54 1009.7
20260505013013 72 196 4.0 7.0 0.00 0.00 0.00 54 1007.5
20260505011527 72 197 4.0 11.0 0.00 0.00 0.00 53 1007.5
20260505010016 73 214 3.0 10.0 0.00 0.00 0.00 52 1007.5
20260505004510 73 195 6.0 11.0 0.00 0.00 0.00 51 1007.6
20260505003015 74 198 4.0 14.0 0.00 0.00 0.00 51 1009.6
20260505003009 74 206 4.0 8.0 0.00 0.00 0.00 51 1007.6
20260505001510 75 207 4.0 10.0 0.00 0.00 0.00 50 1007.6
20260505000015 76 203 5.0 16.0 0.00 0.00 0.00 48 1009.6
20260505000008 76 158 4.0 11.0 0.00 0.00 0.00 48 1007.7
20260504234506 77 224 6.0 10.0 0.00 0.00 0.00 47 1007.8
20260504233020 77 213 7.0 18.0 0.00 0.00 0.00 46 1010.1
20260504233004 77 198 5.0 14.0 0.00 0.00 0.00 46 1008.1
20260504231504 77 200 6.0 16.0 0.00 0.00 0.00 46 1008.3
20260504230015 77 217 7.0 19.0 0.00 0.00 0.00 46 1010.4
20260504230002 77 210 8.0 17.0 0.00 0.00 0.00 46 1008.3
20260504224601 78 158 7.0 17.0 0.00 0.00 0.00 45 1008.4
20260504224503 78 238 6.0 17.0 0.00 0.00 0.00 45 1008.4
20260504223100 78 207 6.0 18.0 0.00 0.00 0.00 47 1008.4
20260504223015 78 229 8.0 19.0 0.00 0.00 0.00 45 1010.4
20260504221559 79 248 7.0 16.0 0.00 0.00 0.00 44 1008.4
20260504220058 79 225 10.0 16.0 0.00 0.00 0.00 44 1008.4
20260504220015 79 213 7.0 23.0 0.00 0.00 0.00 45 1010.6
20260504214606 79 196 11.0 19.0 0.00 0.00 0.00 44 1008.3
20260504213056 79 228 4.0 19.0 0.00 0.00 0.00 44 1008.2
20260504213015 79 227 8.0 23.0 0.00 0.00 0.00 44 1010.6
20260504211555 79 212 9.0 23.0 0.00 0.00 0.00 43 1008.2
20260504210059 79 246 5.0 18.0 0.00 0.00 0.00 45 1008.2
20260504210015 79 211 8.0 21.0 0.00 0.00 0.00 45 1010.3
20260504204554 80 229 6.0 16.0 0.00 0.00 0.00 46 1008.2
20260504203055 80 186 8.0 13.0 0.00 0.00 0.00 45 1008.3
20260504203015 80 213 8.0 23.0 0.00 0.00 0.00 45 1010.5
20260504201547 79 198 7.0 21.0 0.00 0.00 0.00 45 1008.5
20260504200045 79 255 10.0 24.0 0.00 0.00 0.00 45 1008.8
20260504200020 79 217 9.0 23.0 0.00 0.00 0.00 45 1010.9
20260504194545 79 204 6.0 19.0 0.00 0.00 0.00 47 1009.0
20260504193040 78 224 11.0 23.0 0.00 0.00 0.00 47 1009.2
20260504193015 78 210 10.0 23.0 0.00 0.00 0.00 48 1011.4
20260504191546 78 198 10.0 25.0 0.00 0.00 0.00 48 1009.2
20260504190038 78 205 7.0 21.0 0.00 0.00 0.00 51 1009.5
20260504190015 78 222 9.0 22.0 0.00 0.00 0.00 50 1011.6
20260504184533 78 219 7.0 17.0 0.00 0.00 0.00 49 1009.7
20260504183032 78 198 11.0 21.0 0.00 0.00 0.00 47 1009.9
20260504183021 78 222 10.0 24.0 0.00 0.00 0.00 48 1012.0
20260504181531 78 184 11.0 21.0 0.00 0.00 0.00 49 1010.1
20260504180029 78 314 6.0 16.0 0.00 0.00 0.00 51 1010.1
20260504180015 78 218 9.0 24.0 0.00 0.00 0.00 51 1012.2
20260504174525 77 212 8.0 15.0 0.00 0.00 0.00 51 1010.2
20260504173023 77 184 8.0 18.0 0.00 0.00 0.00 53 1010.3
20260504173015 77 229 8.0 23.0 0.00 0.00 0.00 53 1012.6
20260504171530 76 214 6.0 16.0 0.00 0.00 0.00 54 1010.6